Regional Weather Roundup
Issued by NWS Memphis, TN

Current Version | Previous Version | Text Only | Print | Product List | Glossary On
Versions: 1 2 3 4 5 6 7 8 9 10 11 12 13 14 15 16 17 18 19 20 21 22 23 24 25 26 27 28 29 30 31 32 33 34 35 36 37 38 39 40 41 42 43 44 45 46 47 48 49 50
000
ASUS44 KMEG 011010
RWRMEG
MEMPHIS CWA HOURLY WEATHER ROUNDUP
NATIONAL WEATHER SERVICE MEMPHIS TN
500 AM CDT TUE SEP 01 2015

...WEST TENNESSEE...

CITY           SKY/WX    TMP DP  RH WIND       PRES   REMARKS
MEMPHIS INTL   MOCLDY    76  68  76 CALM      30.09R
NWS MEMPHIS      N/A     71 N/A N/A MISG        N/A
JACKSON        PTCLDY    65  64  97 CALM      30.10S FOG
LEXINGTON      MOCLDY    64  64 100 CALM      30.11R VSB 1
DYERSBURG      PTCLDY    66  66 100 CALM      30.11R
UNION CITY     CLEAR    N/A N/A N/A CALM      30.10R
PARIS          CLEAR     63  63 100 CALM      30.12R


...EASTERN ARKANSAS...

CITY           SKY/WX    TMP DP  RH WIND       PRES   REMARKS
JONESBORO      CLEAR     67  67 100 CALM      30.08R
WEST MEMPHIS   MOCLDY    70  69  97 CALM      30.07S
BATESVILLE     CLEAR     72  68  88 CALM      30.08S
NEWPORT        CLEAR     71  71 100 CALM      30.09R
WALNUT RIDGE   CLEAR     70  66  88 CALM      30.08S
BLYTHEVILLE    CLEAR     70  68  93 CALM      30.09R
SEARCY         PTCLDY    70  68  93 NE3       30.08S
STUTTGART      PTCLDY    73  66  78 SE3       30.06R
PINE BLUFF     PTCLDY    70  68  93 CALM      30.05S
MONTICELLO     CLOUDY    72  69  90 CALM      30.06R


...NORTH MISSISSIPPI...

CITY           SKY/WX    TMP DP  RH WIND       PRES   REMARKS
TUPELO         CLEAR     68  66  93 NE6       30.09R
OXFORD         CLEAR     66  64  94 E3        30.10S
OLIVE BRANCH   CLEAR     70  70 100 CALM      30.09S
TUNICA         CLOUDY    70  68  94 NE3       30.08S
CLARKSDALE       N/A     72  72 100 E3        30.07S
CORINTH        FOG       64  64 100 CALM      30.10R VSB 1/4
GREENWOOD      PTCLDY    72  67  84 NE3       30.06S
COLUMBUS       CLEAR     67  66  96 CALM      30.07S
STARKVILLE     FAIR      66  64  94 CALM      30.08S FOG
GOLDEN TRIANGL CLEAR     66  63  88 CALM      30.07S


...SOUTHEAST MISSOURI...

CITY           SKY/WX    TMP DP  RH WIND       PRES   REMARKS
WEST PLAINS    CLEAR     70  67  90 CALM      30.12S
POPLAR BLUFF   CLEAR     67  66  97 CALM      30.08R FOG
CAPE GIRARDEAU CLEAR     66  66 100 SE3       30.09R


...NORTHWEST ALABAMA...

CITY           SKY/WX    TMP DP  RH WIND       PRES   REMARKS
MUSCLE SHOALS  FOG       66  64  93 CALM      30.12R VSB 3/4


...MIDDLE TENNESSEE...

CITY           SKY/WX    TMP DP  RH WIND       PRES   REMARKS
NASHVILLE      CLEAR     68  65  90 CALM      30.13R
CLARKSVILLE    CLEAR     64  63  96 CALM      30.12R FOG
COLUMBIA       CLEAR    N/A N/A N/A CALM      30.12R


...WESTERN KENTUCKY...

CITY           SKY/WX    TMP DP  RH WIND       PRES   REMARKS
PADUCAH        CLEAR     67  64  90 CALM      30.10R
FORT CAMPBELL  CLEAR     67  66  94 CALM      30.12R


...CENTRAL ARKANSAS...

CITY           SKY/WX    TMP DP  RH WIND       PRES   REMARKS
LITTLE ROCK    MOCLDY    73  69  87 CALM      30.05S


SKY/WX REPORTED AS FAIR MEANS FEW OR NO CLOUDS BELOW
12 THOUSAND FEET.




USA.gov is the U.S. government's official web portal to all federal, state and local government web resources and services.